Regional Weather Roundup
Issued by NWS

Home | Current Version | Previous Version | Graphics & Text | Print | Product List | Glossary On
Versions: 1 2 3 4 5 6 7 8 9 10 11 12 13 14 15 16 17 18 19 20 21 22 23 24 25 26
000
ASUS45 KTFX 102110
RWRMT
MONTANA REGIONAL WEATHER ROUNDUP
NATIONAL WEATHER SERVICE GREAT FALLS MT
200 PM MST SUN DEC 10 2017

NOTE: "FAIR" INDICATES FEW OR NO CLOUDS BELOW 12000 FEET WITH NO
SIGNIFICANT WEATHER AND/OR OBSTRUCTIONS TO VISIBILITY.

MTZ001>007-043-102200-
WEST OF THE DIVIDE

CITY           SKY/WX    TMP DP  RH WIND       PRES   REMARKS
KALISPELL      CLOUDY    27  23  85 N5        30.60F
MISSOULA       CLOUDY    19  17  92 S5        30.60F FOG
BUTTE          FAIR      30  12  47 S3        30.51F
MULLAN PASS    FAIR      38  32  79 NW6       30.48F
ANACONDA         N/A     27  18  69 CALM      30.52S
DEER LODGE       N/A     25  18  74 NE3       30.54F
EUREKA           N/A    N/A N/A N/A MISG      30.64S
HAMILTON         N/A     25  21  86 CALM      30.56F
LIBBY            N/A     32  21  64 CALM      30.59F
PLAINS           N/A     29  17  60 CALM      30.57F
RONAN            N/A     26  20  78 CALM      30.58R
$$

MTZ008-052>055-102200-
SOUTHWEST MONTANA

CITY           SKY/WX    TMP DP  RH WIND       PRES   REMARKS
BOZEMAN        FAIR      29  20  69 SE5       30.49F
DILLON         FAIR      33  17  51 SE5       30.50F
W YELLOWSTONE  FAIR      21  14  73 CALM      30.57F
ENNIS          CLOUDY    37  23  56 S6        30.53F
THREE FORKS      N/A     24  17  74 CALM      30.43F
TWIN BRIDGES     N/A     37  13  37 CALM      30.44F
$$

MTZ009-010-012-014-046-048-049-054-102200-
EAST SLOPES AND CENTRAL MONTANA

CITY           SKY/WX    TMP DP  RH WIND       PRES   REMARKS
CUT BANK       FAIR      55  14  19 W20G25    30.27S
GREAT FALLS    FAIR      52   9  17 SW15      30.32S
MALMSTROM AFB  FAIR      53   9  17 SW21      30.31F
HELENA         FAIR      28  20  71 W6        30.49R WCI  22
BOWMANS CRNR   FAIR      48   7  19 S16       30.33R
CHOTEAU          N/A     59  12  15 W14G21    30.30F
FAIRFIELD      FAIR      59   9  13 W20       30.29F
POWER          FAIR      58   8  14 W10       30.28F
RAYNESFORD     PTSUNNY   56   5  13 SW26G38   30.29S
ULM            FAIR      51  10  18 W23G30    30.32F
$$

MTZ011-013-016-021-045-047-050-051-102200-
NORTH CENTRAL MONTANA

CITY           SKY/WX    TMP DP  RH WIND       PRES   REMARKS
HAVRE          FAIR      59  13  16 W16       30.15F
LEWISTOWN      FAIR      43  26  51 SW13      30.25F
N BAR RANCH    FAIR      55   1  11 W20       30.25F
CHINOOK          N/A     55  12  18 W15G21    30.13F
DENTON         PTSUNNY   59   3  11 W31G39    30.21F
GEYSER         PTSUNNY   54   6  14 NW24      30.26S
GRASS RANGE    FAIR      54  13  19 W18       30.20F
STANFORD       FAIR      59   7  13 NW21G30   30.26F
WINIFRED       PTSUNNY   56   5  12 W23G33    30.22S
$$

MTZ017>020-022>027-061-062-102200-
NORTHEAST MONTANA

CITY           SKY/WX    TMP DP  RH WIND       PRES   REMARKS
GLASGOW        FAIR      44  15  31 W7        30.12F
GLENDIVE       FAIR      52  13  21 NW20G26   30.08F
JORDAN           N/A     55   8  15 W16       30.13F
SIDNEY         FAIR      51  18  27 W20       30.04S
WOLF POINT     FAIR      49  15  25 W17       30.09F
MALTA          SUNNY     55   9  15 W23G31    30.12F
PLENTYWOOD       N/A     45  25  45 W6        30.04F
POPLAR           N/A     46  14  27 W16G23    30.09S
SCOBEY           N/A     48  18  30 W15       30.07R
$$

MTZ028>42-056>058-102200-
SOUTHCENTRAL AND SOUTHEAST MONTANA

CITY           SKY/WX    TMP DP  RH WIND       PRES   REMARKS
BAKER          FAIR      50  23  34 W14       30.12F
BILLINGS       PTSUNNY   52  17  25 SW23      30.26F
LIVINGSTON     FAIR      51   7  16 SW22      30.37F
MILES CITY     FAIR      57  14  18 W21G32    30.14F
BIG TIMBER     SUNNY     50   5  16 SW17G32   30.31F
FORSYTH          N/A     59  10  14 W15       30.17F
HARLOWTON      PTSUNNY   50  10  20 NW29G36   30.30R
LAUREL           N/A     50  18  27 SW16      30.28F
ROUNDUP          N/A     55   8  15 SW24      30.11F
$$

REGIONAL REPORTS...DAKOTAS

CITY           SKY/WX    TMP DP  RH WIND       PRES   REMARKS
WILLISTON      CLOUDY    45  22  40 S3        30.04F
MINOT          FAIR      47  25  42 W17       29.97S
DICKINSON      FAIR      48  23  37 W15       30.03F
BEACH          FAIR      48  16  27 W14       30.11S
CROSBY         FAIR      39  28  65 W10       30.01F
TIOGA          CLOUDY    39  27  60 NW12      30.02F WCI  32
BISMARCK       FAIR      49  28  44 W12       30.02F
GRAND FORKS    CLOUDY    25  20  81 S3        30.02S
FARGO          CLOUDY    27  20  75 CALM      30.04R
BUFFALO SD       N/A     54  18  24 W18       30.05F
RAPID CITY     FAIR      64   3   9 NW20G25   30.15F
$$

REGIONAL REPORTS...WYOMING/IDAHO/WASHINGTON

CITY           SKY/WX    TMP DP  RH WIND       PRES   REMARKS
GILLETTE       FAIR      52  16  24 W16       30.25F
SHERIDAN       FAIR      62   6  11 W6        30.26S
BUFFALO WY     FAIR      58   3  11 CALM      30.29S
CODY           FAIR      40  18  41 NE9       30.33F
YELLOWSTONE LA   N/A     26  23  88 CALM      30.56F
IDAHO FALLS    FAIR      27  19  72 VRB3      30.62F
SALMON         FLURRIES  18  14  84 CALM      30.75F
BOISE          CLOUDY    26  20  77 E3        30.69F
SPOKANE        CLOUDY    29  25  85 N6        30.62F WCI  23
$$

REGIONAL REPORTS...ALBERTA

CITY           SKY/WX    TMP DP  RH WIND       PRES   REMARKS
EDMONTON       SUNNY     45  25  45 W16G25    30.12R
CALGARY        MOSUNNY   57  12  17 W22G29    30.21F
LETHBRIDGE     MOSUNNY   57  18  21 W22G29    30.23R
MEDICINE HAT   MOSUNNY   54  16  22 W12       30.18R
$$

REGIONAL REPORTS...SASKATCHEWAN

CITY           SKY/WX    TMP DP  RH WIND       PRES   REMARKS
SWIFT CURRENT  MOSUNNY   41  21  45 W12       30.03S
REGINA         CLOUDY    36  28  75 W10       29.96F WCI  28
SASKATOON      PTSUNNY   37  30  75 SW13      29.91F WCI  29
$$




USA.gov is the U.S. government's official web portal to all federal, state and local government web resources and services.